sat.trackr.live / text

‹ back to catalog

STARLINK-36049

NORAD 66805 · 2025-278Q

PAYLOAD ACTIVE UNKNOWN

§ Identity

Operator
Country
US
Launch date
2025-12-01
Launch site
AFETR
Launch vehicle
Mass (kg)
RCS (m²)

Purposes: comms

External: N2YO · Heavens-Above · Gunter

§ Orbital elements

Epoch: 2026-09-20T22:04:54.607872Z

Period
94.27 min
Inclination
43.0030°
Eccentricity
0.0001727
Mean motion
15.27584218 rev/d
Perigee alt
481.9 km
Apogee alt
484.2 km
Semi-major
6,861.2 km
B*
4.2921e-4
RAAN
92.1054°
Arg perigee
259.1754°
Mean anomaly
100.8903°
Rev number
4,506

§ Raw data

STARLINK-360491 66805U 25278Q   26263.92007648  .00011569  00000+0  42921-3 0  99962 66805  43.0030  92.1054 0001727 259.1754 100.8903 15.27584218 45067

JSON: /api/v1/satellites/66805 · /tle

For live sub-satellite position, see the globe view (requires WebGL).

§ Visibility from observer

Set your observer location to see the next 7 days of passes ≥ 10°. The values pass through the URL so the page stays shareable.

No JS? Fill the form by hand. The geolocation button needs JavaScript.